SCP
10 9 7 6 5 5 5 5 4 4 4 3 3 3 3 3 3 3 3 3 3 3 3 4 4 4 4 3 3 3 4 4 3 3 3 3 4 4 4 4 3 3 2
9 8 7 6 6 5 5 5 4 4 3 3 3 3 3 3 3 3 3 3 3 3 3 3 4 4 4 4 4 3 3 3 4 4 4 3 4 4 5 5 4 4 3
8 8 7 7 6 5 4 4 4 3 3 3 3 3 3 3 3 3 3 3 3 3 3 3 3 3 4 4 4 4 3 3 3 4 4 4 3 4 4 5 5 5 4
8 7 7 6 6 5 4 4 4 4 3 3 3 3 3 3 3 2 2 3 3 3 3 3 3 3 4 4 4 4 3 3 3 3 4 4 3 3 4 4 5 5 5
7 7 6 5 5 4 4 4 4 4 4 4 3 4 3 3 3 3 3 3 4 4 4 4 4 3 3 3 3 3 3 3 3 3 3 4 3 3 4 4 4 5 5
8 7 6 5 5 4 4 5 4 4 5 5 5 4 4 4 3 3 3 4 4 4 4 4 4 3 2 2 2 2 2 3 3 3 3 4 4 4 4 4 4 4 4
8 8 7 6 5 5 5 5 5 5 6 6 6 6 5 5 4 3 2 3 4 3 4 4 3 3 2 2 2 2 2 2 2 3 3 4 4 5 5 5 5 5 5
8 8 7 7 7 6 5 5 5 6 6 7 6 6 6 5 4 2 2 2 3 3 3 3 3 3 2 2 2 2 2 2 2 3 3 4 4 5 5 5 6 6 6
9 9 9 9 8 7 7 6 6 6 6 6 5 5 5 4 3 2 1 2 3 3 3 3 3 3 2 2 3 3 3 3 3 3 4 4 4 4 4 4 5 5 5
11 12 12 12 11 10 10 9 8 7 6 5 5 5 5 4 3 1 1 2 2 3 3 3 3 3 2 2 2 3 4 4 4 4 5 5 5 4 4 5 5 5 5
14 14 14 15 14 14 13 12 10 8 6 6 5 5 5 5 3 1 1 1 2 3 3 4 3 2 1 1 2 2 3 3 3 4 6 7 7 7 7 7 7 7 6
20 19 17 16 16 16 16 14 12 9 7 7 6 6 6 5 4 2 1 1 2 3 4 4 2 1 1 1 1 1 1 2 2 4 7 9 9 8 8 8 8 8 7
23 21 19 18 17 17 17 16 13 10 8 8 7 7 7 6 5 2 1 1 2 4 4 3 1 1 0 0 1 1 1 2 2 4 6 8 8 8 8 8 8 7 6
20 20 19 18 17 17 17 15 12 10 8 8 8 8 8 8 7 5 3 2 2 3 3 2 1 1 1 1 1 1 2 2 3 3 4 4 5 6 6 7 7 7 6
15 15 15 15 14 14 13 11 9 7 6 6 7 7 8 8 8 5 4 3 3 3 3 3 2 2 1 1 1 2 2 2 3 2 2 3 3 4 5 6 7 7 6
10 10 10 10 10 10 9 8 6 4 3 3 4 4 5 5 4 3 2 2 2 2 2 3 3 3 3 2 2 2 2 2 2 2 2 3 3 3 4 5 6 6 5
6 6 6 5 6 6 7 7 5 3 2 1 1 1 2 2 1 0 0 0 0 1 1 2 3 3 3 3 2 2 2 2 2 2 2 3 3 3 4 4 5 5 5
5 4 4 4 4 5 5 5 5 4 2 2 1 1 1 0 0 0 0 0 0 1 1 2 2 3 2 2 2 2 2 2 2 2 3 3 2 2 3 3 4 5 5
4 3 3 4 4 4 4 4 4 3 2 2 2 1 0 0 0 0 0 0 1 1 1 2 3 3 3 2 2 2 3 3 3 3 3 3 2 2 1 2 3 4 5
6 5 4 4 6 7 6 4 3 3 2 2 2 1 1 0 0 1 1 1 1 2 2 3 3 3 3 3 3 3 3 4 4 4 3 2 2 1 1 1 2 3 4
7 6 5 7 11 11 9 6 4 3 2 2 2 4 5 3 1 1 1 1 2 2 3 3 4 4 4 3 3 3 3 3 4 4 3 2 1 1 1 1 1 2 2
6 5 5 8 11 12 9 7 5 4 3 2 2 6 10 5 1 1 1 2 2 2 3 3 3 4 4 3 3 3 3 3 3 4 3 2 1 1 1 1 1 2 2
3 3 3 5 6 7 7 7 5 4 3 3 2 4 6 4 1 1 2 2 2 2 2 3 3 4 4 4 3 3 3 3 3 4 4 3 2 1 2 2 2 2 2
2 2 2 3 3 3 4 5 4 3 3 3 3 2 2 3 2 2 2 2 2 2 2 3 3 3 3 3 3 3 3 3 3 4 4 3 2 2 2 3 2 2 2
1 1 2 2 2 2 2 3 3 2 3 3 2 2 3 3 3 2 2 2 2 2 2 2 3 3 3 3 3 3 3 2 2 2 3 4 3 3 3 3 3 2 2
0 1 1 2 2 2 2 2 2 2 3 3 2 2 2 2 2 2 3 3 2 2 2 2 3 3 3 3 2 3 2 1 1 1 2 4 4 4 3 3 3 3 2
Wind_Speed
5 4 3 3 3 3 3 2 2 1 1 1 2 2 2 2 1 2 2 2 2 2 2 2 3 2 2 2 1 1 1 1 2 2 1 0 1 1 2 2 3 3 3
4 4 3 3 2 3 3 2 1 1 1 2 2 2 3 2 2 2 3 3 3 3 2 2 3 2 2 2 1 1 1 2 2 2 1 1 1 1 1 2 2 2 2
4 4 3 3 3 2 2 1 1 1 2 2 2 2 3 3 2 3 3 3 3 3 3 3 3 2 2 2 2 2 2 2 1 2 2 1 1 1 1 1 2 1 2
3 3 3 2 2 2 2 1 2 2 2 2 2 3 3 3 2 2 3 4 3 3 3 3 3 3 3 3 3 3 2 2 2 2 2 1 1 1 1 1 1 1 1
1 2 2 1 1 2 2 2 2 2 3 2 2 2 3 3 2 2 3 4 3 3 3 4 3 3 3 3 3 2 3 3 2 2 2 1 1 1 1 1 1 1 1
0 1 1 1 1 1 1 1 1 2 2 2 2 2 2 2 3 3 3 4 3 3 3 3 3 2 2 3 4 4 4 4 3 2 2 3 2 2 2 2 1 1 2
1 0 0 1 1 1 2 1 2 2 2 2 2 2 2 2 3 3 4 4 3 3 3 3 4 3 2 2 2 3 4 5 6 4 4 4 3 2 2 2 2 3 3
0 0 0 1 1 1 2 2 2 2 2 2 2 2 2 2 2 3 4 3 3 3 2 2 2 2 2 2 3 2 3 2 4 4 3 4 3 2 2 3 3 2 2
0 1 1 1 1 2 2 2 2 1 1 2 1 1 2 2 2 2 2 3 2 2 2 1 1 1 2 2 2 2 2 2 1 2 3 4 3 3 3 2 2 2 2
1 1 1 1 2 2 1 1 1 1 2 2 2 2 2 1 1 0 1 2 2 2 1 0 0 1 1 1 1 1 2 2 2 2 1 2 3 3 4 4 3 3 2
1 1 1 1 2 1 1 1 1 1 2 2 2 2 2 2 2 1 1 1 2 2 1 1 0 0 1 2 3 2 3 2 2 2 1 1 1 1 2 2 3 3 3
1 1 1 1 1 1 1 1 1 1 1 2 2 2 2 2 2 2 2 2 2 2 2 1 1 1 2 3 3 3 3 2 1 1 1 0 0 1 1 1 2 2 2
2 1 1 1 1 1 1 1 1 1 2 2 2 2 1 1 1 2 3 3 3 2 2 2 2 3 3 3 3 3 2 1 1 1 1 1 1 1 1 1 1 1 1
1 1 1 0 0 0 0 1 1 1 1 1 1 1 1 0 1 0 1 2 3 2 2 2 2 4 3 2 2 1 1 1 1 1 1 1 1 1 1 1 1 0 1
1 0 1 1 1 1 0 1 1 1 1 1 1 1 1 1 1 1 1 1 2 2 2 1 1 1 1 1 1 0 0 0 1 1 1 1 1 1 1 1 1 1 1
1 1 1 1 1 0 0 1 3 1 2 2 1 0 1 1 1 1 0 1 2 1 0 1 2 1 1 1 1 1 1 1 1 1 1 1 1 1 1 1 1 1 1
1 1 2 2 1 1 1 1 0 1 2 3 2 1 1 0 0 1 1 1 2 1 1 2 2 1 1 1 1 1 1 1 1 1 1 1 1 1 1 1 1 1 1
1 2 2 2 2 1 1 1 1 1 0 1 1 1 2 1 1 2 1 1 1 1 2 2 2 1 1 0 1 1 1 1 1 1 1 1 1 1 1 1 1 1 2
2 2 2 1 1 1 1 1 1 1 0 1 1 1 1 1 1 1 1 0 1 1 1 1 1 1 1 1 1 1 1 1 1 1 1 1 1 1 1 1 1 1 1
2 1 2 2 2 1 1 1 0 0 0 1 1 1 1 1 0 0 1 1 1 1 1 1 1 1 1 1 1 1 1 1 1 1 1 1 1 1 1 1 1 1 1
2 1 2 2 1 0 1 1 0 0 1 1 1 1 1 1 0 0 1 1 1 1 1 1 1 1 1 1 1 1 1 1 0 0 0 1 1 1 1 1 1 1 1
2 1 2 2 1 1 1 1 0 0 1 0 1 2 2 1 1 1 1 0 0 0 0 1 1 1 1 1 1 1 1 1 1 1 1 1 1 2 1 1 0 1 1
2 1 1 1 1 1 2 1 1 1 1 1 1 1 1 1 1 0 1 1 1 1 1 1 1 1 1 1 1 1 1 1 1 1 1 1 1 2 1 1 1 1 0
2 1 1 1 2 2 2 2 2 2 1 1 1 0 0 1 1 0 1 1 0 1 1 1 1 1 1 1 1 2 2 2 2 1 2 2 2 2 1 1 1 1 1
2 1 1 1 1 2 2 1 2 2 2 1 1 1 1 1 1 1 1 1 0 1 1 1 0 1 1 1 3 3 2 2 2 3 2 2 2 1 2 2 2 2 2
2 1 1 1 1 2 1 1 1 1 1 1 1 1 1 1 1 1 1 1 1 1 1 1 1 2 2 2 3 3 2 2 2 3 2 2 2 2 2 2 3 3 2
Wind_Direction
182 185 192 196 204 217 234 241 253 269 265 259 272 280 275 261 253 258 268 263 262 274 281 273 261 263 274 284 277 265 243 219 227 268 265 62 111 128 161 184 185 175 181
177 180 190 199 204 217 227 233 241 262 262 256 255 260 265 268 260 257 263 266 257 262 265 268 265 257 259 263 269 250 238 231 203 240 264 231 226 165 195 200 204 195 180
183 190 194 207 210 226 236 228 226 241 259 263 266 264 266 271 268 270 271 274 270 266 261 255 262 260 258 258 250 245 248 248 218 224 247 235 220 209 197 213 210 207 223
180 195 202 215 220 230 248 231 227 230 238 253 259 265 268 271 273 282 285 273 270 271 271 263 261 256 252 250 239 231 240 243 230 224 229 214 200 211 184 216 221 218 230
192 202 201 215 223 237 240 235 232 238 244 251 259 261 264 260 272 292 287 277 279 278 277 275 262 258 251 246 247 227 233 235 233 226 233 230 220 204 226 232 231 252 244
145 233 199 202 216 232 237 225 239 243 261 263 259 260 269 278 301 292 287 287 279 275 277 281 266 258 245 245 242 233 229 227 229 229 232 239 238 225 229 236 221 234 260
123 236 198 205 213 235 247 233 246 244 249 261 261 254 254 272 298 298 293 280 274 269 269 274 277 280 278 277 252 228 230 225 224 226 230 239 242 229 217 233 237 235 244
141 276 306 275 252 251 246 238 241 241 247 251 255 265 264 279 298 302 299 268 264 265 271 269 277 307 301 313 275 255 248 251 242 227 228 240 240 216 202 219 227 251 260
15 332 323 276 263 271 254 245 243 239 251 247 244 260 270 279 290 295 292 272 264 268 261 277 265 261 331 327 286 266 267 272 287 249 234 231 233 229 216 220 233 237 267
3 341 339 325 295 274 265 257 246 233 230 241 247 246 255 258 209 247 283 266 272 272 249 214 265 288 313 318 298 271 262 266 280 283 250 228 226 222 214 216 226 231 249
358 7 357 346 304 284 279 268 234 227 226 230 250 253 243 245 175 175 225 261 283 287 279 270 280 292 331 321 310 286 254 258 262 254 235 211 228 241 225 225 226 223 232
29 21 350 335 306 331 348 303 247 225 233 231 238 249 239 215 169 184 202 239 274 295 293 297 256 240 281 297 292 284 281 274 265 281 275 271 259 277 279 268 252 238 221
21 17 5 3 349 3 336 294 271 235 237 243 241 239 243 197 152 176 213 250 281 283 293 307 291 260 255 259 252 259 261 258 257 261 264 281 279 271 265 274 320 307 288
26 7 337 331 260 336 291 267 268 257 252 255 256 273 300 46 76 201 252 259 272 283 300 305 277 262 259 269 256 241 213 222 245 263 274 288 308 304 290 281 282 318 332
18 336 296 305 320 52 41 341 316 352 358 291 301 314 345 325 350 349 252 277 290 314 308 289 274 259 221 239 239 229 244 262 271 283 278 272 275 276 271 270 258 277 275
334 318 282 272 283 216 203 27 29 34 77 69 41 268 27 116 127 67 289 296 303 333 140 250 254 244 240 255 292 289 257 255 271 261 254 255 261 262 261 281 276 267 265
307 294 271 254 248 240 216 212 270 14 42 40 32 66 87 96 327 307 317 309 283 228 206 246 253 250 246 246 266 285 293 285 259 254 257 261 267 270 262 268 271 279 279
261 264 272 253 239 252 245 219 223 244 330 24 19 118 136 157 256 272 353 32 292 228 240 254 266 269 269 269 294 305 313 303 279 279 277 272 277 269 269 268 268 278 285
270 255 267 258 250 255 249 235 224 213 172 82 70 75 129 152 294 299 121 227 281 296 282 267 290 322 347 11 2 347 322 297 286 269 277 279 288 288 273 264 256 258 266
275 268 266 257 239 246 243 254 274 4 62 91 82 53 77 116 104 147 167 242 260 284 307 344 28 35 33 38 30 354 317 308 310 296 317 325 316 306 296 282 266 262 258
305 314 290 258 240 255 302 293 228 252 258 223 149 121 152 212 246 275 176 207 239 282 340 5 26 49 56 38 15 337 315 306 333 352 7 334 325 306 295 294 279 271 301
326 327 335 347 5 6 321 314 330 356 328 13 93 119 161 230 279 311 335 2 346 63 38 9 24 37 37 35 18 339 323 314 352 18 16 312 293 289 288 279 250 270 261
296 299 314 2 353 306 290 325 334 342 357 22 63 113 170 263 275 324 14 8 0 39 69 77 66 57 42 21 35 33 341 337 359 1 319 285 284 289 286 286 298 289 265
281 277 309 10 2 337 337 345 339 340 1 351 320 307 254 255 276 279 286 284 267 86 69 69 102 101 68 39 54 56 36 13 356 343 318 298 285 287 299 307 286 291 293
270 282 305 339 309 294 307 331 330 340 346 339 332 323 321 319 296 242 238 242 210 153 147 155 129 96 86 56 68 67 51 33 9 338 305 286 282 286 290 296 299 295 288
284 295 331 336 307 296 297 297 304 319 320 319 315 311 319 330 343 329 296 280 258 188 159 128 90 81 65 72 82 83 79 52 17 340 315 295 296 299 299 291 296 298 295